[[{"header":{"parameterUnit":"m.s-1","parameterCategory":1,"la1":30.2991,"la2":30.254,"lo1":-89.0895,"lo2":-89.0444,"dy":0.0017,"dx":0.0017,"nx":28,"ny":28,"refTime":"2025-07-14T09:00:00:Z","depth":0,"parameterNumber":2,"parameterNumberName":"U-component_of_WINDS"},"data":[0,0,0,0,0,0,0,0,0,0,0,0,0,0,0,0,0,0,0,0,0,0,0,0,0,0,0,0,0,0,0,0,0,0,0,0,0,0,0,0,0,0,0,0,0,0,0,0,0,0,0,0,0,0,0,0,0,0,2.4881,2.4882,0,2.5002,2.5004,2.5005,2.5011,2.5009,2.5008,2.5007,2.5133,2.5137,2.5142,0,0,0,0,0,0,0,0,0,0,0,0,0,2.4653,2.4657,2.488,2.4882,2.4883,2.5002,2.5004,2.5005,2.5011,2.5009,2.5008,2.5006,2.5131,2.5137,2.5142,0,0,0,0,0,0,0,0,0,0,0,0,0,2.4761,2.4658,2.488,2.4901,2.4904,2.5002,2.5004,2.5006,2.5012,2.5009,2.5007,2.5005,2.5129,2.5136,2.5143,2.5229,0,0,2.5165,2.5168,0,0,0,0,0,0,0,0,2.4755,2.4769,2.4896,2.4899,2.4903,2.4989,2.497,2.5081,2.5012,2.4971,2.5007,2.5004,2.5087,2.5097,2.5125,2.5235,2.5241,2.5165,2.5169,2.5172,2.5174,0,0,0,0,0,0,0,2.4747,2.4764,2.4929,2.4898,2.4902,2.4904,2.4917,2.4991,2.5039,2.4974,2.4975,2.4989,2.5088,2.5118,2.5128,2.5243,2.5165,2.5171,2.5176,2.5178,2.5428,2.543,0,0,0,0,0,0,2.4736,2.4758,2.4925,2.4932,2.4822,2.4909,2.4924,2.4964,2.5038,2.5048,2.4991,2.4989,2.5107,2.512,2.5132,2.5236,2.5172,2.5179,2.5183,2.5425,2.5428,2.5431,0,0,0,0,0,0,2.4731,2.4751,2.492,2.4845,2.4867,2.4916,2.496,2.4967,2.4997,2.5051,2.506,2.5012,2.5106,2.5122,2.5205,2.5241,2.5182,2.5189,2.5423,2.5426,2.543,2.5446,0,0,0,0,0,0,2.4724,2.4749,2.4782,2.4846,2.4871,2.499,2.4963,2.4971,2.5009,2.5008,2.5073,2.5082,2.5105,2.5194,2.5212,2.5249,2.5194,2.5419,2.5424,2.5428,2.5442,2.545,2.5456,0,0,0,0,0,2.4716,2.4783,2.4784,2.4804,2.4914,2.4992,2.5006,2.5031,2.5012,2.5045,2.508,2.508,2.5234,2.5202,2.5222,2.5263,2.5417,2.5423,2.5428,2.5439,2.5448,2.5456,0,0,0,0,0,0,2.4722,2.4791,2.4793,2.4883,2.4931,2.4993,2.5036,2.504,2.5096,2.5093,2.5121,2.5136,2.5217,2.5249,2.5212,2.5349,2.5324,2.5333,2.5325,2.5334,2.5341,2.5331,2.52,0,0,0,0,0,2.4734,2.4792,2.4849,2.4923,2.4947,2.4987,2.5023,2.5037,2.5089,2.511,2.5151,2.5201,2.5261,2.53,2.5358,2.5447,2.5461,2.5485,2.5492,2.5497,2.5504,2.5552,2.5563,2.5449,2.5449,2.5449,0,0,2.4759,2.4804,2.4839,2.4925,2.4964,2.5023,2.5005,2.5069,2.5112,2.512,2.5199,2.5231,2.5289,2.5375,2.5415,2.5403,2.5539,2.5504,2.5508,2.5512,2.5559,2.5569,2.5579,2.5452,2.5452,2.5451,0,0,2.4834,2.4874,2.4938,2.4978,2.5038,2.5064,2.508,2.5141,2.5162,2.5242,2.5248,2.5301,2.5404,2.5444,2.5478,2.5567,2.5569,2.5586,2.562,2.5666,2.5675,2.5683,2.5713,2.5723,2.5593,2.5593,2.5593,0,2.4857,2.4946,2.4971,2.5034,2.5071,2.508,2.5145,2.5182,2.5258,2.5283,2.527,2.5397,2.5438,2.5532,2.5553,2.5581,2.5599,2.5577,2.5672,2.568,2.5688,2.5717,2.5728,2.5595,2.5594,2.5594,2.5594,0,2.497,2.5032,2.5077,2.5148,2.5191,2.5254,2.5289,2.5329,2.534,2.5367,2.5448,2.5496,2.5563,2.5587,2.5599,2.5683,2.5673,2.5666,2.564,2.57,2.5727,2.5738,2.5597,2.5596,2.5596,2.5595,0,0,2.5052,2.5136,2.5152,2.5183,2.525,2.5298,2.5361,2.5426,2.5459,2.5511,2.5564,2.565,2.5643,2.5681,2.5698,2.5739,2.5803,2.5726,2.5728,2.5737,2.5896,2.59,2.5912,2.5806,2.5808,2.581,2.589,0,2.5132,2.5245,2.5269,2.5366,2.5422,2.5431,2.5486,2.5533,2.556,2.5612,2.5643,2.5702,2.5689,2.5712,2.5753,2.5787,2.5835,2.5782,2.5854,2.5856,2.5837,2.5927,2.5931,2.6005,2.5901,2.5903,2.5905,0,2.5241,2.5294,2.5396,2.5453,2.5477,2.5526,2.5586,2.5636,2.5689,2.5706,2.5748,2.5761,2.5826,2.5799,2.589,2.5852,2.5884,2.5905,2.5908,2.5914,2.5882,2.5933,2.6029,2.6039,2.5922,2.5921,2.5919,0,2.5287,2.5384,2.5457,2.5484,2.5554,2.5587,2.5618,2.5668,2.5705,2.5758,2.5782,2.5843,2.5875,2.5922,2.595,2.5928,2.6037,2.6013,2.6052,2.6051,2.6073,2.6071,2.6174,2.6097,2.6097,2.6097,2.6097,0,2.5372,2.5434,2.5478,2.5523,2.5592,2.5619,2.5687,2.5717,2.5762,2.5812,2.5825,2.5872,2.5907,2.5959,2.5982,2.6052,2.6068,2.6083,2.6087,2.608,2.6078,2.61,2.6094,2.61,2.6099,2.6099,2.6098,0,2.5435,2.5467,2.5547,2.5605,2.5622,2.567,2.5719,2.5763,2.5791,2.5854,2.5871,2.5914,2.5976,2.6009,2.6087,2.6102,2.618,2.6183,2.6161,2.6163,2.62,2.6195,2.6318,2.6335,2.6249,2.625,2.625,0,2.5486,2.5533,2.5596,2.563,2.5661,2.5717,2.5754,2.5783,2.5821,2.5884,2.5919,2.5982,2.6032,2.6131,2.6169,2.6228,2.6232,2.6271,2.6241,2.6231,2.6229,2.6225,2.6229,2.6275,2.6276,2.6277,2.6277,0,2.5573,2.5586,2.5639,2.5697,2.5741,2.5788,2.5835,2.5863,2.5899,2.5941,2.6004,2.6044,2.6122,2.6183,2.6245,2.6276,2.6282,2.6287,2.6298,2.629,2.6275,2.6281,2.6173,2.6283,2.6283,2.6282,2.6282,2.6282,2.563,2.5671,2.5721,2.5779,2.5818,2.5861,2.5904,2.5936,2.5989,2.6054,2.6069,2.6134,2.6185,2.6268,2.6301,2.6353,2.6345,2.6363,2.6367,2.637,2.637,2.6268,2.6365,2.6365,2.6364,2.6364,2.6364,0,2.5715,2.5748,2.5801,2.5865,2.591,2.5912,2.5964,2.6002,2.6059,2.6105,2.6155,2.6226,2.6285,2.6328,2.6388,2.6421,2.6426,2.6436,2.6433,2.6439,2.6375,2.6358,2.6431,2.6431,2.6431,2.6431,2.6431,2.6431,2.5765,2.5834,2.5853,2.5942,2.5974,2.6038,2.6067,2.6107,2.6143,2.6222,2.6271,2.6298,2.6343,2.6406,2.646,2.6471,2.6492,2.6502,2.6513,2.6451,2.6444,2.6437,2.6421,2.6507,2.6507,2.6572,2.6573,2.6573]},{"header":{"parameterUnit":"m.s-1","parameterCategory":1,"la1":30.2991,"la2":30.254,"lo1":-89.0895,"lo2":-89.0444,"dy":0.0017,"dx":0.0017,"nx":28,"ny":28,"refTime":"2025-07-14T09:00:00:Z","depth":0,"parameterNumber":3,"parameterNumberName":"V-component_of_WINDS"},"data":[0,0,0,0,0,0,0,0,0,0,0,0,0,0,0,0,0,0,0,0,0,0,0,0,0,0,0,0,0,0,0,0,0,0,0,0,0,0,0,0,0,0,0,0,0,0,0,0,0,0,0,0,0,0,0,0,0,0,2.779,2.779,0,2.779,2.779,2.779,2.7753,2.7752,2.7752,2.7751,2.775,2.775,2.7751,0,0,0,0,0,0,0,0,0,0,0,0,0,2.776,2.7761,2.779,2.779,2.779,2.779,2.779,2.779,2.7754,2.7752,2.7751,2.775,2.7749,2.775,2.7751,0,0,0,0,0,0,0,0,0,0,0,0,0,2.7768,2.7761,2.7791,2.7772,2.7771,2.779,2.779,2.779,2.7754,2.7752,2.7751,2.775,2.7749,2.775,2.7752,2.7788,0,0,2.7755,2.7756,0,0,0,0,0,0,0,0,2.7767,2.7769,2.7775,2.7774,2.7772,2.777,2.7778,2.7789,2.7754,2.776,2.7751,2.7749,2.7758,2.7758,2.7761,2.7788,2.7787,2.7756,2.7756,2.7757,2.7757,0,0,0,0,0,0,0,2.7767,2.7769,2.779,2.7775,2.7773,2.7764,2.7764,2.778,2.7767,2.776,2.7757,2.7757,2.7756,2.776,2.7761,2.7787,2.7755,2.7757,2.7757,2.7758,2.7842,2.7843,0,0,0,0,0,0,2.7769,2.7768,2.779,2.779,2.7766,2.7766,2.7765,2.7772,2.7767,2.7764,2.7759,2.7756,2.7758,2.7759,2.7761,2.7801,2.7757,2.7758,2.7759,2.784,2.7842,2.7844,0,0,0,0,0,0,2.7768,2.7771,2.779,2.7779,2.778,2.7768,2.7776,2.7773,2.7776,2.7766,2.7763,2.7765,2.7757,2.7759,2.7781,2.7801,2.7759,2.776,2.7839,2.7841,2.7843,2.7883,0,0,0,0,0,0,2.7768,2.7771,2.7785,2.7779,2.7781,2.7811,2.7777,2.7774,2.7779,2.7775,2.7771,2.7769,2.7756,2.7779,2.7782,2.7802,2.7761,2.7837,2.784,2.7842,2.788,2.7887,2.7892,0,0,0,0,0,2.7767,2.7797,2.7786,2.7789,2.7798,2.7812,2.7813,2.7798,2.778,2.7794,2.7787,2.7769,2.7798,2.7782,2.7785,2.7805,2.7835,2.7839,2.7842,2.7877,2.7885,2.7892,0,0,0,0,0,0,2.7805,2.7796,2.7784,2.7813,2.7813,2.7806,2.7822,2.7807,2.7813,2.7809,2.7791,2.779,2.7815,2.7812,2.7794,2.7839,2.7814,2.7818,2.7839,2.7847,2.7853,2.7852,2.7762,0,0,0,0,0,2.7817,2.783,2.782,2.7847,2.7848,2.7835,2.7841,2.7829,2.7829,2.7829,2.7824,2.7825,2.7834,2.784,2.7848,2.788,2.7878,2.7895,2.7901,2.7906,2.791,2.7925,2.7932,2.7855,2.7855,2.7855,0,0,2.7842,2.7838,2.7847,2.7855,2.7854,2.7866,2.7836,2.7851,2.786,2.7832,2.7852,2.7848,2.7847,2.7874,2.7885,2.7872,2.7931,2.791,2.7915,2.7915,2.7929,2.7936,2.7943,2.7857,2.7856,2.7856,0,0,2.7893,2.7892,2.7913,2.7913,2.7912,2.7903,2.7909,2.7903,2.7899,2.7919,2.7898,2.7909,2.7925,2.7925,2.7927,2.7978,2.7961,2.7981,2.8012,2.8027,2.8033,2.8038,2.8055,2.8061,2.7985,2.7985,2.7985,0,2.7924,2.7942,2.7926,2.7942,2.7945,2.7921,2.7941,2.7942,2.7944,2.7947,2.7932,2.7952,2.795,2.7975,2.7987,2.7991,2.7995,2.7981,2.8034,2.8039,2.8043,2.8059,2.8066,2.7987,2.7987,2.7987,2.7987,0,2.7979,2.7992,2.8009,2.8011,2.8017,2.8035,2.8021,2.8029,2.8017,2.801,2.803,2.8026,2.8033,2.8038,2.8027,2.8062,2.8054,2.8037,2.8011,2.8053,2.8068,2.8074,2.7991,2.799,2.7989,2.7989,0,0,2.8054,2.8047,2.8053,2.8053,2.805,2.8059,2.8077,2.8082,2.8089,2.8091,2.8104,2.8118,2.8102,2.8105,2.8093,2.8107,2.8145,2.8088,2.8088,2.8098,2.8182,2.8194,2.8201,2.8135,2.8136,2.8137,2.8182,0,2.8103,2.8131,2.8117,2.8146,2.8157,2.8134,2.8148,2.8148,2.8142,2.815,2.8143,2.8153,2.8132,2.8133,2.8145,2.8138,2.8162,2.8135,2.8146,2.8146,2.8145,2.8209,2.8221,2.8264,2.8187,2.8188,2.8189,0,2.8163,2.8166,2.8197,2.8191,2.8195,2.8208,2.8212,2.8221,2.8219,2.8214,2.8216,2.8201,2.8217,2.8192,2.8213,2.8195,2.8199,2.8196,2.8197,2.8197,2.8169,2.8208,2.8277,2.8283,2.8198,2.8197,2.8197,0,2.8212,2.8225,2.8245,2.8246,2.824,2.8249,2.8247,2.8245,2.8249,2.8252,2.8254,2.826,2.8263,2.8267,2.8254,2.8237,2.8276,2.8251,2.8271,2.8271,2.8279,2.8279,2.8348,2.8284,2.8284,2.8284,2.8284,0,2.8267,2.8286,2.8267,2.8279,2.83,2.8283,2.8304,2.83,2.8297,2.8308,2.8288,2.8299,2.8281,2.8289,2.8279,2.8297,2.8299,2.8295,2.8291,2.8295,2.8296,2.8297,2.8293,2.8286,2.8285,2.8285,2.8285,0,2.8325,2.8314,2.8333,2.8325,2.8324,2.8339,2.8332,2.8343,2.8335,2.8349,2.8351,2.8339,2.8347,2.8335,2.8343,2.8336,2.836,2.8353,2.836,2.8358,2.8378,2.8376,2.845,2.8458,2.839,2.8391,2.8391,0,2.836,2.8374,2.8368,2.8373,2.8372,2.8381,2.8385,2.8369,2.8374,2.8373,2.8384,2.8391,2.8395,2.841,2.8402,2.8407,2.84,2.8425,2.84,2.8404,2.8398,2.8397,2.8398,2.843,2.8431,2.8431,2.8432,0,2.8422,2.8416,2.8422,2.8426,2.8431,2.8434,2.8435,2.844,2.8424,2.843,2.8438,2.8442,2.845,2.8456,2.846,2.8457,2.8442,2.844,2.8445,2.8448,2.8451,2.8448,2.8373,2.8438,2.8437,2.8437,2.8437,2.8436,2.8469,2.848,2.8477,2.8484,2.8483,2.8484,2.8493,2.8487,2.8493,2.8498,2.8488,2.8499,2.8497,2.8499,2.8499,2.8506,2.8495,2.8503,2.8504,2.8506,2.8508,2.8451,2.8507,2.8507,2.8507,2.8507,2.8507,0,2.8529,2.8525,2.8532,2.8534,2.854,2.8525,2.8525,2.8531,2.854,2.8539,2.8544,2.8553,2.856,2.8552,2.8557,2.8565,2.8558,2.8567,2.8565,2.8565,2.8519,2.8513,2.8572,2.8572,2.8572,2.8572,2.8572,2.8572,2.8561,2.8578,2.8571,2.8587,2.8584,2.8593,2.8595,2.8596,2.8595,2.8606,2.8611,2.8606,2.8602,2.8606,2.8612,2.8609,2.8611,2.8622,2.8617,2.8574,2.8568,2.8562,2.8557,2.8623,2.8624,2.8662,2.8663,2.8663]}]]